User: anonymous   Login
Location: Ostrava
(49.8330°N, 18.2830°E)
Time: 00:45:47
(UTC+02:00)
Language:

NOAA 19 - Orbit

View from above orbital plane
View from above orbital plane
View from above satellite
View from above satellite

Ground track
Ground track

The orbit data is extracted from the following two-line orbital elements,

1 33591U 09005A   16178.51153183  .00000098  00000-0  78477-4 0  9999
2 33591  99.0405 135.3609 0013694 188.5165 171.5776 14.12083894380458
Epoch (UTC): 26 June 2016 12:16:36
Eccentricity: 0.0013694
inclination: 99.0405°
perigee height: 842 km
apogee height: 862 km
right ascension of ascending node: 135.3609°
argument of perigee: 188.5165°
revolutions per day: 14.12083894
mean anomaly at epoch: 171.5776°
orbit number at epoch: 38045

The dashed part of the orbit path shows where the satellite is in the earth's shadow,  

DLR